HWL4 EHAM-KATL

Flight info

Callsign HWL4
Flight time N/A
Altitude 36000
Route BERGI L60 OTBED DCT ABLUC DCT OZRAT DCT WETFI DCT ASKUP DCT REVNU DCT RESNO/M085F360 DCT 55N020W 55N030W 5430N04000W 5330N05000W DCT PELTU/N0495F360 N592A TOPPS DCT ENE DCT BAF Q448 PTW J48 MOL DCT FLASK OZZZI2
Aircraft A359/H-SDE2E3GHIJ3J4J5LM1ORWXY/LB1D1

Departure

Time N/A
Airport Amsterdam Airport Schiphol (EHAM)

Arrival

Time 2026-05-04 07:28
Airport Hartsfield Jackson Atlanta International Airport (KATL)
Time Latitude Longitude Altitude Speed Heading
2026-05-04 07:01 35.12605 -82.65913 36252 ft 448 kts 229°
2026-05-04 07:01 35.10341 -82.68584 36028 ft 450 kts 230°
2026-05-04 07:02 35.08108 -82.71230 35808 ft 452 kts 230°
2026-05-04 07:02 35.06047 -82.73676 35600 ft 454 kts 231°
2026-05-04 07:02 35.03785 -82.76362 35166 ft 457 kts 231°
2026-05-04 07:02 35.01654 -82.78900 34529 ft 460 kts 231°
2026-05-04 07:03 34.99351 -82.81644 33603 ft 464 kts 230°
2026-05-04 07:03 34.97044 -82.84389 32653 ft 468 kts 230°
2026-05-04 07:03 34.95039 -82.86762 31810 ft 471 kts 230°
2026-05-04 07:03 34.92646 -82.89577 30828 ft 475 kts 229°
2026-05-04 07:04 34.90266 -82.92329 29817 ft 478 kts 229°
2026-05-04 07:04 34.87808 -82.95152 28759 ft 481 kts 228°
2026-05-04 07:04 34.85403 -82.97902 28021 ft 476 kts 228°
2026-05-04 07:04 34.83026 -83.00630 27479 ft 469 kts 229°
2026-05-04 07:05 34.80651 -83.03377 26864 ft 463 kts 229°
2026-05-04 07:05 34.78339 -83.06054 26267 ft 459 kts 229°
2026-05-04 07:05 34.76861 -83.07767 25866 ft 456 kts 229°
2026-05-04 07:05 34.74577 -83.10403 25333 ft 450 kts 228°
2026-05-04 07:06 34.70072 -83.15563 24314 ft 440 kts 228°
2026-05-04 07:06 34.68376 -83.17509 23942 ft 435 kts 228°
2026-05-04 07:06 34.66190 -83.20025 23452 ft 431 kts 228°
2026-05-04 07:07 34.64078 -83.22460 22990 ft 427 kts 228°
2026-05-04 07:08 34.49937 -83.38695 19657 ft 405 kts 227°
2026-05-04 07:09 34.47907 -83.41022 19186 ft 402 kts 227°
2026-05-04 07:09 34.45884 -83.43345 18717 ft 399 kts 227°
2026-05-04 07:09 34.43899 -83.45627 18243 ft 397 kts 227°
2026-05-04 07:09 34.41902 -83.47921 17769 ft 394 kts 227°
2026-05-04 07:10 34.39903 -83.50219 17264 ft 392 kts 227°
2026-05-04 07:10 34.37933 -83.52483 16787 ft 390 kts 227°
2026-05-04 07:12 34.24197 -83.67861 13490 ft 381 kts 223°
2026-05-04 07:12 34.22213 -83.69964 13036 ft 380 kts 223°
2026-05-04 07:12 34.20227 -83.72073 12562 ft 379 kts 223°
2026-05-04 07:12 34.18257 -83.74171 12108 ft 377 kts 223°
2026-05-04 07:13 34.16518 -83.76022 11701 ft 375 kts 223°
2026-05-04 07:13 34.14561 -83.78108 11258 ft 373 kts 223°
2026-05-04 07:13 34.12774 -83.80008 11030 ft 364 kts 223°
2026-05-04 07:14 34.05675 -83.87579 10457 ft 318 kts 224°
2026-05-04 07:14 34.04059 -83.89320 10357 ft 307 kts 224°
2026-05-04 07:15 34.02495 -83.91004 10225 ft 298 kts 224°
2026-05-04 07:15 34.00973 -83.92641 10103 ft 289 kts 224°
2026-05-04 07:15 33.99484 -83.94239 10017 ft 282 kts 224°
2026-05-04 07:15 33.98010 -83.95770 9863 ft 282 kts 216°
2026-05-04 07:16 33.96191 -83.96699 9572 ft 284 kts 190°
2026-05-04 07:16 33.94221 -83.96774 9327 ft 283 kts 178°
2026-05-04 07:16 33.92259 -83.96648 9069 ft 283 kts 177°
2026-05-04 07:16 33.90256 -83.96515 9000 ft 294 kts 178°
2026-05-04 07:17 33.88197 -83.96399 8982 ft 296 kts 178°
2026-05-04 07:17 33.86122 -83.96300 8976 ft 296 kts 178°
2026-05-04 07:17 33.84150 -83.96215 8886 ft 298 kts 178°
2026-05-04 07:17 33.82406 -83.96142 8628 ft 297 kts 178°
2026-05-04 07:18 33.80353 -83.96056 8356 ft 294 kts 179°
2026-05-04 07:18 33.78424 -83.95975 8143 ft 290 kts 179°
2026-05-04 07:18 33.76518 -83.95905 8087 ft 277 kts 181°
2026-05-04 07:18 33.74622 -83.96069 8012 ft 265 kts 190°
2026-05-04 07:19 33.73040 -83.96438 7890 ft 258 kts 194°
2026-05-04 07:19 33.71299 -83.96915 7760 ft 252 kts 194°
2026-05-04 07:19 33.69919 -83.97299 7609 ft 246 kts 194°
2026-05-04 07:19 33.68402 -83.97717 7503 ft 240 kts 194°
2026-05-04 07:20 33.66765 -83.98161 7363 ft 234 kts 194°
2026-05-04 07:20 33.65195 -83.98585 7240 ft 227 kts 196°
2026-05-04 07:20 33.63828 -83.99394 7061 ft 216 kts 233°
2026-05-04 07:20 33.63264 -84.00974 6837 ft 205 kts 270°
2026-05-04 07:22 33.63515 -84.12506 5318 ft 184 kts 271°
2026-05-04 07:22 33.63514 -84.14012 5120 ft 177 kts 271°
2026-05-04 07:23 33.63511 -84.15483 4966 ft 171 kts 271°
2026-05-04 07:23 33.63507 -84.16851 4761 ft 161 kts 270°
2026-05-04 07:23 33.63502 -84.18150 4571 ft 151 kts 270°
2026-05-04 07:23 33.63498 -84.19416 4416 ft 150 kts 270°
2026-05-04 07:24 33.63494 -84.20676 4230 ft 149 kts 270°
2026-05-04 07:24 33.63491 -84.21925 4039 ft 149 kts 270°
2026-05-04 07:24 33.63488 -84.23176 3835 ft 148 kts 270°
2026-05-04 07:24 33.63485 -84.24402 3640 ft 147 kts 270°
2026-05-04 07:25 33.63484 -84.25629 3445 ft 147 kts 270°
2026-05-04 07:26 33.63466 -84.34129 2027 ft 144 kts 270°
2026-05-04 07:27 33.63476 -84.35323 1847 ft 143 kts 269°
2026-05-04 07:27 33.63475 -84.36510 1662 ft 143 kts 270°
2026-05-04 07:27 33.63475 -84.37709 1482 ft 143 kts 270°
2026-05-04 07:27 33.63468 -84.38891 1304 ft 142 kts 270°
2026-05-04 07:28 33.63473 -84.40071 1126 ft 142 kts 270°
2026-05-04 07:28 33.63472 -84.41264 969 ft 138 kts 270°
2026-05-04 07:28 33.63473 -84.42130 992 ft 70 kts 270°
2026-05-04 07:28 33.63472 -84.42515 1004 ft 33 kts 269°
2026-05-04 07:29 33.63473 -84.42734 1009 ft 25 kts 270°
2026-05-04 07:29 33.63473 -84.42946 1012 ft 25 kts 274°
2026-05-04 07:29 33.63515 -84.43072 1014 ft 7 kts 300°
2026-05-04 07:29 33.63540 -84.43107 1015 ft 5 kts 326°
2026-05-04 07:30 33.63559 -84.43115 1015 ft 1 kts
2026-05-04 07:30 33.63565 -84.43113 1015 ft 0 kts 22°
2026-05-04 07:30 33.63570 -84.43109 1015 ft 1 kts 40°
2026-05-04 07:30 33.63573 -84.43102 1015 ft 1 kts 72°
2026-05-04 07:31 33.63576 -84.43082 1015 ft 3 kts 76°
2026-05-04 07:31 33.63580 -84.43059 1015 ft 2 kts 88°
2026-05-04 07:33 33.63655 -84.42729 1010 ft 6 kts 87°
2026-05-04 07:33 33.63655 -84.42657 1008 ft 11 kts 90°
2026-05-04 07:33 33.63656 -84.42543 1004 ft 16 kts 91°
2026-05-04 07:33 33.63650 -84.42428 1001 ft 7 kts 93°
2026-05-04 07:34 33.63657 -84.42403 1001 ft 1 kts 32°
2026-05-04 07:34 33.63672 -84.42404 1001 ft 1 kts 349°
2026-05-04 07:34 33.63692 -84.42409 1001 ft 3 kts 349°
2026-05-04 07:34 33.63713 -84.42413 1001 ft 1 kts 355°
2026-05-04 07:35 33.63726 -84.42414 1001 ft 1 kts 348°
2026-05-04 07:35 33.63732 -84.42419 1001 ft 1 kts 313°
2026-05-04 07:35 33.63732 -84.42436 1001 ft 2 kts 263°
2026-05-04 07:35 33.63730 -84.42461 1002 ft 4 kts 266°
2026-05-04 07:36 33.63728 -84.42506 1003 ft 0 kts 268°
2026-05-04 07:36 33.63728 -84.42509 1003 ft 0 kts 270°